Regional Weather Roundup
Issued by NWS

Home | Current Version | Previous Version | Text Only | Print | Product List | Glossary On
Versions: 1 2 3 4 5 6 7 8 9 10 11 12 13 14 15 16 17 18 19 20 21 22 23 24 25 26 27 28 29 30 31 32 33 34 35 36 37 38 39 40 41 42 43 44 45 46 47 48 49 50
000
ASUS43 KMKX 030221
RWRWI

WISCONSIN REGIONAL WEATHER ROUNDUP
NATIONAL WEATHER SERVICE MILWAUKEE/SULLIVAN WI
800 PM CST FRI DEC 02 2016

NOTE: "FAIR" INDICATES FEW OR NO CLOUDS BELOW 12,000 FEET WITH NO
SIGNIFICANT WEATHER AND/OR OBSTRUCTIONS TO VISIBILITY.

WIZ001-002-006>008-014>016-023>028-030300-
NORTHWEST WISCONSIN

CITY           SKY/WX    TMP DP  RH WIND       PRES   REMARKS
SUPERIOR ARPT  CLOUDY    31  26  80 W6        30.27S WCI  25
ASHLAND        CLOUDY    29  24  82 SW9       30.27R WCI  20
HAYWARD        CLOUDY    28  22  78 VRB3      30.26R
SIREN          CLOUDY    30  24  79 CALM      30.28S
CUMBERLAND     CLOUDY    28  23  80 NW6       30.26S WCI  22
RICE LAKE      CLOUDY    30  24  78 CALM      30.28S
CHETEK         CLOUDY    30  24  77 W3        30.27S
LADYSMITH      CLOUDY    29  24  82 W7        30.27S WCI  22
EAU CLAIRE     CLOUDY    31  24  75 NW6       30.26F WCI  25
MENOMONIE      CLOUDY    32  24  71 W7        30.27S WCI  26
NEW RICHMOND   CLOUDY    30  24  79 NW5       30.27F WCI  25
OSCEOLA        CLOUDY    30  24  77 N5        30.31S WCI  25
$$

WIZ003>005-009-010-017-018-030300-
NORTH CENTRAL WISCONSIN

CITY           SKY/WX    TMP DP  RH WIND       PRES   REMARKS
MANITOWISH WTR CLOUDY    28  28 100 W5        30.21S WCI  23
ARBOR VITAE    CLOUDY    32  29  90 W3        30.21S
WOODRUFF       CLOUDY    32  29  90 W3        30.21S
RHINELANDER    CLOUDY    30  28  92 W7        30.21F WCI  23
EAGLE RIVER    CLOUDY    29  26  87 CALM      30.20S
LAND O LAKES   CLOUDY    30  28  93 CALM      30.22R
PHILLIPS       CLOUDY    28  24  84 W3        30.23S
TOMAHAWK       CLOUDY    29  25  85 CALM      30.23S
MEDFORD        CLOUDY    28  22  78 W3        30.23F
MERRILL        CLOUDY    31  25  78 NW5       30.24S WCI  26
$$

WIZ029-030-035-036-043>047-030300-
CENTRAL WISCONSIN

CITY           SKY/WX    TMP DP  RH WIND       PRES   REMARKS
WAUSAU         CLOUDY    31  23  72 NW9       30.22F WCI  23
MOSINEE        CLOUDY    30  25  80 W10       30.25S WCI  21
MARSHFIELD     CLOUDY    30  22  72 NW8       30.23F WCI  22
STEVENS POINT  CLOUDY    29  22  75 NW3       30.25F
WAUPACA        CLOUDY    34  25  69 CALM      30.26S
WAUTOMA        CLOUDY    31  23  72 W8        30.27F WCI  23
WISC RAPIDS    CLOUDY    31  23  72 N6        30.26F WCI  25
CAMP DOUGLAS   CLOUDY    31  23  73 NW7       30.27S WCI  24
$$

WIZ011>013-019>022-031-037>040-048>050-030300-
NORTHEAST WISCONSIN

CITY           SKY/WX    TMP DP  RH WIND       PRES   REMARKS
ANTIGO         CLOUDY    30  26  84 NW8       30.22S WCI  22
SHAWANO        CLOUDY    35  27  72 W5        30.25S WCI  31
OCONTO         CLOUDY    35  27  74 W6        30.23F WCI  30
STURGEON BAY   CLOUDY    36  29  75 W10       30.23R WCI  28
GREEN BAY      CLOUDY    36  29  75 W10       30.25S WCI  28
MANITOWOC      CLOUDY    34  27  75 W10       30.25S WCI  26
APPLETON       CLOUDY    32  25  74 W6        30.23S WCI  26
CLINTONVILLE   CLOUDY    32  27  80 W6        30.24F WCI  26
OSHKOSH        CLOUDY    32  24  72 NW8       30.25F WCI  25
$$

WIZ032>034-041-042-053>061-030300-
SOUTHWEST WISCONSIN

CITY           SKY/WX    TMP DP  RH WIND       PRES   REMARKS
LA CROSSE      CLOUDY    34  23  64 NW6       30.30R WCI  29
SPARTA         CLOUDY    32  25  74 NW5       30.29S WCI  27
VIROQUA        CLOUDY    30  24  78 NW3       30.27R
BOSCOBEL       CLOUDY    34  23  64 NW5       30.31R WCI  30
PRAIRIE DU CHI CLOUDY    32  21  64 NW6       30.32R WCI  26
PLATTEVILLE    CLOUDY    32  26  78 NW6       30.30R WCI  26
$$

WIZ056-057-062-063-064-067-068-030300-
SOUTH CENTRAL WISCONSIN

CITY           SKY/WX    TMP DP  RH WIND       PRES   REMARKS
REEDSBURG      CLOUDY    30  23  74 W9        30.29R WCI  22
BARABOO/DELLS  CLOUDY    31  23  72 W5        30.28R WCI  26
LONE ROCK      CLOUDY    33  23  66 N7        30.30S WCI  27
MINERAL POINT  CLOUDY    32  27  80 W5        30.28S WCI  27
MADISON        CLOUDY    31  21  66 VRB3      30.28R
MIDDLETON      CLOUDY    32  24  72 W5        30.29R WCI  27
WATERTOWN      CLOUDY    31  24  74 NW6       30.28R WCI  26
MONROE         CLOUDY    32  25  74 W5        30.28R WCI  27
JANESVILLE     CLOUDY    34  25  69 W7        30.28S WCI  28
$$

WIZ051-052-058>065-066-070>072-030300-
SOUTHEAST WISCONSIN

CITY           SKY/WX    TMP DP  RH WIND       PRES   REMARKS
MILWAUKEE      CLOUDY    35  23  61 NW8       30.27R WCI  29
WAUKESHA       NOT AVBL
MILWAUKEE/TIMM CLOUDY    32  21  64 NW6       30.28R WCI  26
RACINE         CLOUDY    34  22  61 VRB7      30.30R WCI  28
BURLINGTON     CLOUDY    32  25  73 CALM      30.28R
KENOSHA        CLOUDY    34  25  69 W9        30.29R WCI  27
FOND DU LAC    CLOUDY    33  23  66 NW8       30.26S WCI  26
SHEBOYGAN      CLOUDY    33  25  72 NW6       30.25F WCI  28
WEST BEND      CLOUDY    32  27  80 W8        30.26R WCI  25
JUNEAU         CLOUDY    31  23  73 NW7       30.28R WCI  24
$$

LSZ147-162-030300-
LAKE SUPERIOR

STATION/POSITION TIME  TEMP    WIND        PRES    WAVE
                       AIR SEA DIR/SP/G            HT/PER
                 (UTC) (F)     (DEG/KT/KT) (MB)    (FT/S)
DEVILS ISLAND    0100   33     260/  8/ 10 1024.8R
PORT WING        0130   30     200/  5/  8 1024.7S
SAXON HARBOR     0140   31     220/  5/  8 1024.7R
$$

LMZ867-665-643>646-030300-
LAKE MICHIGAN

STATION/POSITION TIME  TEMP    WIND        PRES    WAVE
                       AIR SEA DIR/SP/G            HT/PER
                 (UTC) (F)     (DEG/KT/KT) (MB)    (FT/S)
CHAMBERS ISLAND  0140   37     260/  5/ 10 1023.0R
NORTHPORT PIER   0140   38     300/ 11/ 14 1022.7R
SISTER BAY       0008   38     330/ 16/ 17   N/A
ALGOMA LAKESHORE 0151          310/  4/ 10   N/A
KEWAUNEE LAKESHO 0154   35     270/  7/ 12 1023.2R
SHEBOYGAN LAKESH 0100   34     290/ 12/ 15 1025.1R
PORT WASHINGTON  0140   34     300/  4/  7 1025.7S
MILWAUKEE LAKESH 0200   34     290/  6/  7   N/A
S MID LAKE BUOY  0050   38 49  310/ 12/ 16 1024.6R   2/ 5
KENOSHA   LAKESH 0100   34     340/  7/ 11 1025.4
$$

TC  - TEMPERATURE IN CELSIUS
VSB - VISIBILITY IN STATUTE MILES
WCI - WIND CHILL INDEX
HX  - HEAT INDEX





USA.gov is the U.S. government's official web portal to all federal, state and local government web resources and services.